Location: Unspecified
(0.0000°N, 0.0000°E)
Time: 10:52:51
(UTC+00:00)

Traac - Pass Details

Date: 09 October 2024
Orbit: 950 x 1102 km, 32.4° (Epoch: 12 November)

Event Time Altitude Azimuth Distance (km) Brightness Sun altitude
Rises 19:39:32 0° 204° (SSW) 3,659 11.4 -27.9°
Reaches altitude 10° 19:44:05 10° 176° (S) 2,686 10.3 -29.0°
Enters shadow 19:45:13 12° 166° (SSE) 2,561 10.1 -29.3°
